LUSAT (LO-19)

Last updated on Mon Sep 21 2026 00:03:14 GMT+0000 (Coordinated Universal Time)

1 20442U 90005G 26263.34560516 .00000042 00000+0 31728-4 0 9995 2 20442 98.8820 287.7586 0010498 288.7564 71.2481 14.34144744916032
UTC large
Height (km)
Speed (km/s)
/
Latitude / Longitude
Inclination (degrees)
Orbital Period (minutes)
Azimuth
Elevation
Range (km)
Doppler Factor

Next 0 passes for location: London (51.5072 / 0.1276)

No passes found over London.
LUSAT (LO-19)